• In Netherlands
  • List of Countries
  • For 7 days
  • Water Temperature
  • Satellite Maps
  • Weather Map
  • Weather Widgets
  • user-avatar
    Login

    Hourly Weather Idzhewan

    Today, 30 April, Sunday

    Time Temperature Precipitation Wind Pressure Humidity
    00:00 +12°C° 0.1 mm 1 mps 694 mmHg 93%
    01:00 +11°C° 0.1 mm 1 mps 693 mmHg 94%
    02:00 +10°C° 0.1 mm 0 mps 693 mmHg 94%
    03:00 +9°C° 0 mm 0 mps 693 mmHg 95%
    04:00 +9°C° 0 mm 0 mps 693 mmHg 94%
    05:00 +10°C° 0 mm 0 mps 693 mmHg 93%
    06:00 +10°C° 0 mm 0 mps 693 mmHg 92%
    07:00 +12°C° 0 mm 0 mps 693 mmHg 83%
    08:00 +14°C° 0 mm 0 mps 694 mmHg 74%
    09:00 +18°C° 0 mm 1 mps 694 mmHg 64%
    10:00 +19°C° 0.2 mm 1 mps 694 mmHg 61%
    11:00 +20°C° 0.2 mm 1 mps 694 mmHg 57%
    12:00 +20°C° 0.2 mm 2 mps 694 mmHg 54%
    13:00 +21°C° 0.7 mm 1 mps 693 mmHg 55%
    14:00 +22°C° 0.7 mm 1 mps 693 mmHg 56%
    15:00 +22°C° 0.7 mm 1 mps 693 mmHg 57%
    16:00 +21°C° 0.7 mm 1 mps 693 mmHg 62%
    17:00 +20°C° 0.7 mm 1 mps 693 mmHg 67%
    18:00 +19°C° 0.7 mm 1 mps 693 mmHg 72%
    19:00 +16°C° 0.4 mm 1 mps 693 mmHg 77%
    20:00 +14°C° 0.4 mm 1 mps 692 mmHg 82%
    21:00 +11°C° 0.4 mm 1 mps 692 mmHg 87%
    22:00 +11°C° 0 mm 1 mps 692 mmHg 87%
    23:00 +9°C° 0 mm 0 mps 692 mmHg 87%

    Tomorrow, 1 May, Monday

    Time Temperature Precipitation Wind Pressure Humidity
    00:00 +8°C° 0 mm 0 mps 692 mmHg 88%
    01:00 +8°C° 0 mm 0 mps 692 mmHg 87%
    02:00 +8°C° 0 mm 0 mps 692 mmHg 86%
    03:00 +7°C° 0 mm 0 mps 692 mmHg 85%
    04:00 +9°C° 0 mm 1 mps 692 mmHg 82%
    05:00 +10°C° 0 mm 1 mps 693 mmHg 79%
    06:00 +11°C° 0 mm 1 mps 693 mmHg 75%
    07:00 +14°C° 0 mm 1 mps 693 mmHg 66%
    08:00 +18°C° 0 mm 1 mps 694 mmHg 57%
    09:00 +21°C° 0 mm 1 mps 694 mmHg 47%
    10:00 +22°C° 0 mm 1 mps 694 mmHg 44%
    11:00 +23°C° 0 mm 1 mps 694 mmHg 40%
    12:00 +25°C° 0 mm 1 mps 694 mmHg 36%
    13:00 +25°C° 0 mm 2 mps 694 mmHg 36%
    14:00 +25°C° 0 mm 2 mps 694 mmHg 36%
    15:00 +25°C° 0 mm 2 mps 693 mmHg 36%
    16:00 +24°C° 0 mm 1 mps 693 mmHg 43%
    17:00 +22°C° 0 mm 1 mps 693 mmHg 50%
    18:00 +21°C° 0 mm 1 mps 693 mmHg 57%
    19:00 +19°C° 0 mm 1 mps 693 mmHg 62%
    20:00 +16°C° 0 mm 1 mps 693 mmHg 68%
    21:00 +14°C° 0 mm 1 mps 693 mmHg 74%
    22:00 +13°C° 0 mm 1 mps 693 mmHg 76%
    23:00 +12°C° 0 mm 1 mps 693 mmHg 78%

    Day after tomorrow, 2 May, Tuesday

    Time Temperature Precipitation Wind Pressure Humidity
    00:00 +10°C° 0 mm 0 mps 693 mmHg 80%
    01:00 +10°C° 0 mm 0 mps 693 mmHg 79%
    02:00 +10°C° 0 mm 0 mps 693 mmHg 79%
    03:00 +11°C° 0 mm 0 mps 693 mmHg 78%
    04:00 +11°C° 0.1 mm 0 mps 693 mmHg 78%
    05:00 +12°C° 0.1 mm 0 mps 693 mmHg 78%
    06:00 +12°C° 0.1 mm 0 mps 693 mmHg 78%
    07:00 +15°C° 0 mm 1 mps 693 mmHg 70%
    08:00 +18°C° 0 mm 1 mps 694 mmHg 62%
    09:00 +20°C° 0 mm 1 mps 694 mmHg 55%
    10:00 +20°C° 0.2 mm 2 mps 694 mmHg 54%
    11:00 +21°C° 0.2 mm 2 mps 694 mmHg 53%
    12:00 +23°C° 0.2 mm 2 mps 693 mmHg 51%
    13:00 +23°C° 0.3 mm 2 mps 693 mmHg 53%
    14:00 +23°C° 0.3 mm 2 mps 692 mmHg 55%
    15:00 +23°C° 0.3 mm 2 mps 692 mmHg 57%
    16:00 +21°C° 0.2 mm 2 mps 692 mmHg 62%
    17:00 +21°C° 0.2 mm 1 mps 692 mmHg 67%
    18:00 +20°C° 0.2 mm 1 mps 691 mmHg 72%
    19:00 +18°C° 0.3 mm 1 mps 692 mmHg 76%
    20:00 +16°C° 0.3 mm 1 mps 692 mmHg 80%
    21:00 +13°C° 0.3 mm 0 mps 692 mmHg 84%
    22:00 +13°C° 1.6 mm 0 mps 692 mmHg 84%
    23:00 +14°C° 1.6 mm 1 mps 691 mmHg 85%

    3 May, Wednesday

    Time Temperature Precipitation Wind Pressure Humidity
    00:00 +14°C° 1.6 mm 1 mps 691 mmHg 85%
    01:00 +14°C° 1 mm 1 mps 691 mmHg 86%
    02:00 +13°C° 1 mm 1 mps 691 mmHg 87%
    03:00 +13°C° 1 mm 1 mps 690 mmHg 89%
    04:00 +13°C° 0.1 mm 1 mps 691 mmHg 89%
    05:00 +13°C° 0.1 mm 1 mps 691 mmHg 89%
    06:00 +13°C° 0.1 mm 1 mps 691 mmHg 89%
    07:00 +15°C° 0 mm 1 mps 691 mmHg 82%
    08:00 +18°C° 0 mm 1 mps 691 mmHg 75%
    09:00 +19°C° 0 mm 1 mps 691 mmHg 68%
    10:00 +20°C° 0.3 mm 1 mps 691 mmHg 65%
    11:00 +21°C° 0.3 mm 1 mps 691 mmHg 61%
    12:00 +22°C° 0.3 mm 1 mps 691 mmHg 57%
    13:00 +23°C° 0.5 mm 1 mps 690 mmHg 57%
    14:00 +23°C° 0.5 mm 1 mps 690 mmHg 57%
    15:00 +23°C° 0.5 mm 1 mps 690 mmHg 56%
    16:00 +22°C° 0.5 mm 1 mps 690 mmHg 63%
    17:00 +21°C° 0.5 mm 1 mps 690 mmHg 69%
    18:00 +18°C° 0.5 mm 0 mps 690 mmHg 75%
    19:00 +17°C° 0.8 mm 0 mps 690 mmHg 79%
    20:00 +15°C° 0.8 mm 0 mps 690 mmHg 83%
    21:00 +13°C° 0.8 mm 0 mps 690 mmHg 86%
    22:00 +13°C° 0.4 mm 1 mps 690 mmHg 87%
    23:00 +13°C° 0.4 mm 1 mps 690 mmHg 87%

    4 May, Thursday

    Time Temperature Precipitation Wind Pressure Humidity
    00:00 +12°C° 0.4 mm 1 mps 690 mmHg 87%
    01:00 +12°C° 0.2 mm 1 mps 689 mmHg 88%
    02:00 +12°C° 0.2 mm 1 mps 689 mmHg 90%
    03:00 +11°C° 0.2 mm 1 mps 689 mmHg 91%
    04:00 +12°C° 0.1 mm 1 mps 689 mmHg 89%
    05:00 +12°C° 0.1 mm 1 mps 690 mmHg 87%
    06:00 +13°C° 0.1 mm 1 mps 690 mmHg 85%
    07:00 +15°C° 0 mm 1 mps 690 mmHg 77%
    08:00 +18°C° 0 mm 1 mps 691 mmHg 69%
    09:00 +21°C° 0 mm 1 mps 691 mmHg 61%
    10:00 +21°C° 0.1 mm 1 mps 691 mmHg 58%
    11:00 +22°C° 0.1 mm 1 mps 691 mmHg 55%
    12:00 +23°C° 0.1 mm 1 mps 691 mmHg 53%
    13:00 +23°C° 0.4 mm 1 mps 691 mmHg 54%
    14:00 +23°C° 0.4 mm 1 mps 690 mmHg 55%
    15:00 +23°C° 0.4 mm 1 mps 690 mmHg 57%
    16:00 +22°C° 0.5 mm 1 mps 690 mmHg 63%
    17:00 +21°C° 0.5 mm 1 mps 690 mmHg 69%
    18:00 +18°C° 0.5 mm 0 mps 690 mmHg 76%
    19:00 +18°C° 0.4 mm 1 mps 690 mmHg 80%
    20:00 +15°C° 0.4 mm 1 mps 690 mmHg 84%
    21:00 +13°C° 0.4 mm 1 mps 691 mmHg 88%
    22:00 +13°C° 0.1 mm 1 mps 691 mmHg 88%
    23:00 +13°C° 0.1 mm 1 mps 691 mmHg 89%

    5 May, Friday

    Time Temperature Precipitation Wind Pressure Humidity
    00:00 +12°C° 0.1 mm 1 mps 691 mmHg 90%
    01:00 +12°C° 0 mm 1 mps 691 mmHg 91%
    02:00 +11°C° 0 mm 1 mps 690 mmHg 92%
    03:00 +10°C° 0 mm 1 mps 690 mmHg 93%
    04:00 +11°C° 0 mm 1 mps 691 mmHg 92%
    05:00 +12°C° 0 mm 1 mps 691 mmHg 90%
    06:00 +13°C° 0 mm 1 mps 691 mmHg 88%
    07:00 +15°C° 0 mm 1 mps 692 mmHg 79%
    08:00 +18°C° 0 mm 1 mps 692 mmHg 69%
    09:00 +21°C° 0 mm 1 mps 692 mmHg 60%
    10:00 +22°C° 0.3 mm 1 mps 692 mmHg 59%
    11:00 +22°C° 0.3 mm 1 mps 692 mmHg 58%
    12:00 +23°C° 0.3 mm 1 mps 691 mmHg 56%
    13:00 +23°C° 1.2 mm 1 mps 691 mmHg 58%
    14:00 +23°C° 1.2 mm 1 mps 691 mmHg 60%
    15:00 +23°C° 1.2 mm 1 mps 690 mmHg 61%
    16:00 +22°C° 1.3 mm 1 mps 690 mmHg 66%
    17:00 +21°C° 1.3 mm 1 mps 690 mmHg 70%
    18:00 +20°C° 1.3 mm 1 mps 690 mmHg 75%
    19:00 +19°C° 0.9 mm 1 mps 691 mmHg 80%
    20:00 +16°C° 0.9 mm 1 mps 691 mmHg 85%
    21:00 +14°C° 0.9 mm 1 mps 691 mmHg 90%
    22:00 +14°C° 0.4 mm 1 mps 691 mmHg 92%
    23:00 +14°C° 0.4 mm 1 mps 691 mmHg 93%
    Show more